GFSSE_con_mucape_057.txt.gz
CAPE
1848 2730 3380 2992 2780 2719 2283 2106 2233 2672 2670 2906 3211 3049 2736 2472 2279 2316 2301 1768 1579 1592 1436 1456 1400 1509 1327 1437 1166 920 675 604 1078 799 1143 1158 906 606 243 690 619 197 47
1980 2848 3533 3450 2824 2730 2364 2123 2230 2656 2522 2577 3018 2806 2498 2657 2311 2415 2575 1797 1668 1637 1397 1418 1581 1414 1307 1167 895 666 710 1038 791 739 520 840 1020 265 3 379 649 0 539
2177 2752 3140 3498 3135 2785 2376 2158 2144 2377 2194 1978 2445 2388 2306 2639 2463 2404 1945 1871 1740 1952 1843 1617 1579 1508 1275 809 858 803 1176 1222 1406 984 1047 576 562 694 607 478 889 83 390
2202 2664 2919 3550 3492 2857 2499 2261 2160 2304 2273 2370 2158 1770 2233 1831 1598 1732 2018 2141 2172 1961 1897 1696 1637 1498 1009 955 1451 1016 1431 668 839 1059 423 473 666 542 200 651 783 436 99
2212 2428 2763 3255 3130 2840 2639 2552 2460 2666 2464 2363 2124 1985 1827 1753 1089 1232 1438 1707 2046 1949 1932 1764 1718 1397 1067 727 1272 1243 1255 1083 628 517 446 426 274 76 338 463 21 441 782
2098 2300 3155 3119 2580 2695 2527 2497 2530 2587 2484 2182 2187 2150 2084 2046 1807 1293 1462 1371 1717 1696 1800 1825 1832 1006 1385 1164 1030 1203 886 931 879 294 2 542 639 483 631 1114 335 0 326
1977 2304 2774 3319 3139 2897 2681 2442 2519 2549 2404 2156 2059 2034 1930 1932 1941 1935 1759 1779 1374 1435 1565 1607 1181 1136 1498 1386 1155 1053 708 903 627 569 314 488 581 919 353 758 225 873 271
1870 2366 2503 2836 2810 2600 2468 2485 2315 2062 1953 2098 2039 1969 1920 1813 1854 1774 1772 1713 1710 1741 1320 1559 1614 1186 1593 1480 1274 1004 834 893 671 211 259 311 725 1652 495 445 474 428 146
2139 2383 2459 2451 2313 2484 2356 2452 2523 2239 2090 2177 2127 2026 1949 1927 1820 1960 1830 1808 1613 1639 1747 1476 1528 1765 1674 1719 1275 1309 1039 632 560 450 291 233 1438 1368 1002 729 939 1060 190
2116 2032 1874 2267 2260 2119 2104 2427 2438 2377 2331 2315 2266 2176 1968 1810 1822 1843 2153 2440 1754 1797 1730 1675 1368 1358 1774 1749 1682 1111 1070 696 440 359 464 217 1351 1067 887 724 674 453 152
1139 779 588 711 788 1398 1671 2159 2702 2325 2160 2068 1899 1896 1771 1398 1338 1413 1610 1866 1585 1336 1557 1500 1535 1470 1214 1667 1704 1682 1091 511 400 286 282 527 1283 854 839 314 705 749 507
648 428 411 284 329 526 1300 1679 2045 1728 1637 1610 1717 1742 1616 1439 1299 1343 1574 1467 1568 1316 1291 1470 1738 1829 1524 941 1040 1599 960 432 375 128 229 654 1276 1040 1158 1438 535 691 958
468 329 388 158 76 126 482 682 1637 1679 1530 1432 1416 1496 1580 1215 967 964 963 1120 1303 1180 985 1072 1228 1165 1187 651 682 803 1006 611 388 162 528 1098 1437 1246 1582 1651 1345 889 484
421 318 188 12 123 81 176 253 697 1263 1494 1366 1479 1055 1125 874 640 621 481 877 948 1006 894 847 680 642 577 619 384 317 358 561 413 174 451 1410 1504 1435 1514 1375 1481 1311 1116
376 201 78 22 23 121 62 162 343 404 927 877 1337 1151 863 407 432 111 243 187 382 664 671 682 498 285 151 301 339 252 468 533 532 179 326 1246 1597 1601 1752 1859 1304 1116 1445
430 191 66 0 23 17 113 165 59 264 234 432 636 379 473 379 294 187 62 339 453 282 287 176 49 37 62 20 76 215 233 401 574 540 320 325 1267 1578 1397 1493 1891 1759 1528
183 153 0 0 36 193 168 262 178 258 283 70 330 122 334 317 219 125 187 390 274 195 166 50 19 18 10 49 38 81 181 250 395 443 463 316 380 1621 1330 1818 1766 1838 2127
124 0 0 0 47 180 250 364 342 334 158 22 71 98 109 421 158 202 149 124 41 44 70 37 32 28 4 0 6 72 129 153 377 311 355 461 500 582 1460 2034 1364 1464 1585
196 0 0 94 510 485 768 660 579 455 270 169 60 79 221 291 225 149 56 18 46 119 92 73 70 40 7 5 5 55 79 115 177 261 292 248 427 576 668 960 1462 1440 1243
378 20 0 608 893 665 555 533 474 448 288 122 98 91 80 128 158 110 53 27 13 87 205 194 167 99 89 2 123 459 286 258 276 259 216 316 307 454 496 527 444 515 1160
579 164 0 745 724 551 322 15 13 49 128 85 55 59 34 24 24 17 11 5 20 120 158 171 218 204 162 119 155 231 242 206 123 222 167 211 254 272 355 492 444 401 443
728 367 6 673 494 676 667 49 20 74 92 85 55 17 33 20 11 25 2 0 34 79 162 298 321 226 150 143 218 147 64 0 11 54 54 145 233 226 200 196 256 269 372
835 422 534 509 119 922 1482 32 16 3 0 7 28 22 18 55 73 80 179 172 210 229 212 273 239 194 175 133 247 130 0 0 0 432 331 294 138 153 106 91 102 165 188
803 478 144 114 636 1292 1245 41 257 103 34 24 110 194 180 227 158 180 146 184 217 258 333 254 201 180 249 154 111 177 98 8 0 0 37 102 274 59 71 66 43 36 55
965 663 792 1122 1722 1673 647 92 485 354 284 347 261 214 191 237 156 123 127 123 186 190 223 247 277 256 142 166 159 64 90 124 96 32 9 0 32 21 124 35 15 52 28
1246 854 1123 1114 1886 1134 228 124 573 458 576 532 312 207 245 170 149 136 156 145 165 181 245 206 172 190 230 215 152 191 92 18 31 58 6 1 238 34 200 66 52 61 61

GFSSE_con_mucape_060.txt.gz
CAPE
1584 2309 2669 2931 2570 2096 1926 1798 2074 2334 2469 2938 2812 2701 2625 2276 1957 1890 1687 1696 1641 1475 1364 1450 1366 1463 1303 1173 930 813 670 871 1209 585 946 1140 837 767 878 898 691 0 0
1902 2659 2562 3157 2844 2147 2115 2292 2188 2595 2546 2664 2813 2607 2388 2315 2190 2196 1980 1717 1762 1589 1556 1562 1488 1396 1059 1145 682 552 470 1169 1074 1115 988 893 343 185 497 235 178 81 0
2362 2655 2954 3185 3083 2321 2161 2431 2417 2459 2358 2413 2629 2376 2359 2564 2413 2164 1783 1754 1782 1499 1498 1718 1614 1488 1068 862 592 919 664 897 1181 806 890 858 85 179 530 898 37 732 180
2246 2644 2823 3254 3215 2589 2283 2446 2660 2353 2096 2390 2352 2477 2488 2356 2222 1988 1929 1855 1963 2018 1846 1866 1653 1142 847 935 855 1144 1241 1220 1176 899 617 633 204 767 491 633 0 338 942
2098 2375 2631 3037 3128 2585 2188 2457 2649 2801 2522 2177 1960 2443 2018 1881 1919 2062 2002 1904 1977 2006 1791 1883 1711 1009 962 1583 1158 1442 697 857 1007 589 378 525 364 93 534 643 688 238 777
1834 2075 2752 2975 2792 2628 2367 2219 2385 2684 2541 2256 1920 1965 1970 1381 1518 1500 1556 2045 1988 1985 1832 1862 1389 1357 942 1258 962 938 982 884 617 307 360 687 301 275 452 172 163 865 583
1735 1869 2601 3223 3140 2995 2550 2361 2594 2702 2437 2170 2152 2141 2169 2068 1709 1757 1642 1605 1837 1711 1954 1803 1094 1436 1203 1230 1044 704 794 622 544 494 112 601 614 846 650 778 0 189 813
1615 2096 2525 2649 2996 2650 2434 2430 2462 2307 2158 2067 2162 2060 2027 2087 2097 2034 1902 1807 1528 1443 1579 1553 1137 1454 1426 1077 795 731 920 760 687 453 233 486 776 833 710 505 372 716 169
1984 2143 2266 2313 2388 2535 2478 2436 2294 2092 2000 2117 2090 2068 1982 1916 1905 1885 1960 1850 1862 1884 1453 1714 1780 1387 1448 1111 955 925 858 840 606 302 272 378 1289 1173 643 511 629 218 150
2058 2104 2168 1741 1628 1839 1842 2133 2242 2236 2096 2143 2157 2081 1934 1987 1775 1924 2255 2366 1799 1770 1819 1537 1451 1907 1861 1445 1161 964 817 835 687 302 369 319 1284 1415 902 687 850 1015 62
1614 1539 1498 1622 1193 1208 1410 1528 2091 2083 2137 1977 2067 2160 1919 1557 1536 1871 1874 2021 1763 1716 1807 1584 1467 1565 1814 1867 1500 1039 913 678 385 278 405 510 1356 1069 881 816 632 701 153
1070 884 740 865 640 908 1150 1318 1224 1294 1690 1665 1619 1526 1419 1351 1221 1331 1732 1680 1667 1444 1503 1682 1740 1494 1382 1278 1483 1552 958 609 419 198 632 822 1606 971 1343 1171 1147 755 462
595 374 330 229 155 258 480 1078 868 1255 1600 1596 1575 1609 1506 1333 1186 1499 1456 1233 1349 1462 1058 1249 1335 1463 1112 940 897 1147 1034 619 470 502 534 1071 1552 1082 1535 1863 1243 795 814
484 368 282 263 103 122 206 452 417 1008 1393 1354 1415 1419 1280 1441 977 964 1037 790 1180 1189 1043 916 788 809 883 675 491 531 614 748 592 415 513 1099 1680 1668 1741 1729 2048 1096 883
612 381 273 89 93 49 115 137 135 379 760 1073 1164 1183 1061 1217 844 730 577 653 823 856 899 675 684 455 343 279 299 185 454 546 625 496 762 1120 1664 1568 1470 1630 1455 1365 1278
667 426 209 77 33 32 65 83 60 69 266 490 383 797 698 605 457 346 516 458 329 393 719 595 397 231 30 65 160 235 229 480 791 596 411 659 1658 1699 1551 1418 1464 1438 1354
638 282 168 16 65 28 80 33 87 24 53 175 134 336 287 221 284 220 138 156 205 432 330 310 201 89 76 77 93 77 185 183 295 603 524 541 433 1302 1677 1834 1623 1938 1649
1 131 49 0 70 141 43 140 223 186 83 80 217 131 116 112 229 163 94 150 369 304 274 206 83 60 49 23 27 94 327 323 508 675 673 673 511 513 843 1728 1492 1499 1427
105 7 0 0 91 202 166 248 392 416 309 337 140 9 40 115 278 132 216 273 244 88 56 62 43 66 70 18 16 21 77 183 257 402 478 482 745 820 895 1233 1478 1595 1637
305 0 0 7 481 694 749 720 646 560 469 273 136 79 77 184 278 175 143 84 15 70 93 89 102 103 115 63 61 342 498 292 248 297 312 426 716 613 1018 993 841 1202 1498
439 73 0 188 856 591 366 56 22 52 98 200 119 79 82 86 122 123 102 40 10 30 115 101 160 178 146 88 116 159 146 123 174 230 254 221 312 445 564 840 906 961 986
639 223 0 281 818 465 148 14 24 94 147 126 95 51 46 40 37 33 24 0 0 16 54 137 262 258 192 144 204 122 75 4 11 15 16 125 154 259 330 352 488 420 414
779 319 13 225 771 491 763 2 20 7 26 56 108 46 34 50 51 87 103 65 46 65 138 158 313 338 212 201 209 114 17 0 0 325 64 114 158 178 154 149 151 166 174
737 401 193 446 131 499 1324 3 122 24 13 24 23 103 157 265 219 183 147 155 196 212 238 261 230 269 245 181 149 197 138 0 0 1 115 129 373 98 124 105 92 62 46
823 535 139 3 8 848 1347 0 165 152 123 164 245 247 247 257 198 151 184 176 234 311 336 297 303 256 201 262 206 99 155 112 22 1 5 9 5 21 81 55 55 38 26
1089 622 369 739 1174 1626 1048 62 255 243 249 274 188 118 196 194 172 183 197 199 193 226 237 246 244 253 253 210 226 170 99 69 91 91 14 82 33 56 113 32 41 41 13

GFSSE_con_mucape_063.txt.gz
CAPE
1450 1597 2910 2687 2053 1854 2032 2201 2419 2865 3117 2997 2888 2385 2230 2043 1892 1742 1610 1535 1542 1758 1589 1333 1640 1373 1401 1279 836 821 665 777 561 673 785 1081 496 683 415 603 301 0 7
1528 1470 2733 2920 2378 1862 1955 2248 2364 2768 2920 3010 2864 2599 2307 1956 1944 1799 1792 1714 1600 1477 1592 1563 1537 1512 1447 956 751 668 1032 1129 796 1068 915 286 914 947 1056 553 0 0 885
1658 1602 1941 2821 2679 2156 2136 2293 2328 2346 2300 2351 2593 2199 1953 2155 2130 2133 1813 1769 1627 1524 1603 1659 1558 1455 1287 726 570 582 1164 962 1149 991 963 1 14 418 216 0 769 0 465
1735 1748 1927 2792 2684 2603 2577 2636 2554 2500 2165 2411 2229 2272 2429 2441 2238 2007 1722 1720 1663 1469 1722 1656 1583 1119 923 726 1135 836 930 942 1001 1002 556 2 22 652 908 65 851 434 728
1808 1834 2108 2886 2892 2073 2375 2903 2830 2654 2668 2405 2505 2544 2477 2220 1994 1909 1849 1861 1522 1685 1772 1680 1180 924 1024 957 1312 1452 1344 1275 1093 824 578 422 8 685 771 3 368 1074 752
1695 1723 2630 2542 2675 2341 2136 2509 2700 2788 2725 2431 2530 2304 1955 1924 1894 1937 1686 1796 1769 1819 1706 1484 1163 901 1468 1258 1545 764 995 1035 801 612 730 730 3 468 341 724 317 748 553
1672 1652 2152 2618 2824 2738 2590 2257 2549 2531 2721 2440 2043 2109 1533 1615 1474 1507 1497 1607 1574 1672 1606 1540 1551 831 1171 1097 1108 891 1095 873 265 347 607 363 271 639 856 1 694 694 513
1544 1660 2155 2291 2340 2636 2200 2275 2327 2171 2236 2107 2112 2065 2047 1787 1742 1910 1674 1508 1540 1552 1745 1549 1170 1133 1255 1212 855 969 859 684 898 701 383 563 851 718 806 317 1 418 1203
1623 1974 2281 2174 2220 2199 2269 2283 2190 2093 1852 2006 2176 2143 2007 2059 2009 1890 1836 1759 1601 1520 1372 1472 1178 1522 1165 1074 842 916 1056 1064 910 900 593 392 1175 481 775 499 635 518 292
1709 1961 2162 2301 2324 2275 2124 2039 2038 1963 1865 2025 2072 2050 1830 1870 1769 1811 2132 1921 1723 1762 1633 1484 1460 1441 1376 1032 835 979 1005 1030 1173 975 918 605 1331 1060 642 629 769 307 142
1950 2147 2221 1751 1942 2365 2354 2267 2145 1919 1968 1925 2023 2034 2011 1795 1495 1632 1716 1880 1863 1855 1609 1557 1429 1602 1605 1543 1171 928 871 871 773 883 1074 1040 1162 1337 997 937 759 1003 369
1850 1805 1782 1782 1518 1402 1842 2073 2118 1973 1964 2102 2037 2143 2199 1947 1922 1680 1523 1613 1561 1453 1453 1561 1372 1478 1603 1047 997 1157 674 709 685 899 1098 994 1160 1215 1261 1751 1271 939 612
1550 1381 976 756 384 733 1131 2129 1969 1818 1979 1841 1897 2061 2061 1949 1798 1752 1506 1271 1508 1555 1106 1459 1380 1138 978 1333 977 1020 974 604 531 646 671 1022 1384 1208 1296 2109 1598 1038 735
1384 1005 688 363 124 110 134 1457 1909 2194 1982 2134 1873 2045 2316 1957 1949 1718 1479 1395 1869 1908 1641 1504 1182 1491 1327 1240 1193 1277 1083 813 523 560 619 892 1641 1377 1224 1386 1558 1109 1128
1101 818 598 269 183 97 184 975 1494 1697 1743 1974 1923 2084 2081 2052 2086 1619 1319 1394 1351 1713 1711 1672 1458 1280 1259 1041 1058 979 886 703 773 549 472 893 1495 1598 1590 1136 1346 1523 1107
1120 957 455 191 90 115 149 262 416 275 336 626 1568 1266 1732 1923 1687 1310 1304 1003 1290 1434 1436 1351 1543 1275 878 509 523 776 865 1047 1334 1327 878 665 1453 1717 1521 1720 1820 1597 1393
787 655 360 93 111 95 108 330 326 198 298 515 723 325 425 495 361 249 562 443 1167 1195 1459 1710 1301 882 772 723 731 601 346 733 801 1469 1683 1315 951 1268 1822 1608 1832 1676 1785
1048 543 127 143 147 214 151 275 515 544 382 250 237 79 106 198 140 123 234 370 476 831 1147 1079 969 569 429 405 426 422 461 636 975 1359 1456 1532 1395 1351 1464 1549 1760 1845 1803
372 436 147 64 154 118 155 301 525 748 784 519 335 265 161 115 395 430 137 209 719 877 1022 939 751 542 464 507 418 229 311 411 816 800 1242 1543 1565 1436 1332 1321 1577 1694 1882
279 84 79 40 77 505 670 434 496 497 389 350 232 328 238 120 136 593 429 324 404 317 320 477 539 508 470 515 549 392 679 646 1094 1052 1128 1182 1330 1442 1481 1745 2348 1248 1795
659 120 52 48 480 980 793 485 161 201 209 202 218 463 447 547 350 252 163 309 286 267 442 675 669 672 721 759 153 730 830 777 963 734 264 700 1164 1284 1409 1699 1960 1624 1363
825 327 12 3 1157 1096 764 243 136 235 221 366 285 114 57 169 188 184 115 130 718 407 486 538 697 765 845 114 123 241 782 323 428 235 224 337 909 1169 1355 1406 1539 1587 1650
935 647 116 54 1351 1185 1210 119 148 105 86 193 211 115 40 50 44 189 448 485 510 430 222 478 622 703 826 177 236 1116 788 201 302 194 178 156 262 312 489 460 666 685 796
1036 760 797 169 1192 1146 1372 254 211 165 173 139 289 395 305 156 194 501 625 523 984 901 812 706 1263 1320 1442 336 731 950 652 339 319 237 161 99 221 242 309 129 115 186 370
1070 829 626 887 1167 655 1483 987 191 415 354 250 631 833 898 479 283 226 162 264 520 406 256 160 412 200 496 1320 987 711 651 296 257 348 88 92 3 14 99 126 136 194 363
1050 974 909 592 696 716 1789 1185 393 1178 958 920 513 614 703 632 584 569 192 223 332 276 415 537 571 1209 1164 1016 987 937 765 623 510 699 393 144 26 15 29 45 12 198 289

GFSSE_con_mucape_069.txt.gz
CAPE
1458 1451 2762 2353 2513 2600 2561 2685 2865 2695 2387 1994 1739 1841 1971 1863 1759 1834 1781 1586 1400 1039 1369 1163 1145 1359 1385 1324 1029 619 367 728 1269 1357 1162 914 1053 908 661 406 776 145 101
1628 1306 2601 2641 2409 2603 2764 2802 3052 3026 2312 1955 1907 2027 2114 1979 1794 1969 1652 1691 1509 1536 1543 1631 1311 1390 1269 1017 830 916 674 794 1011 1000 504 778 528 602 82 104 708 46 313
1544 1555 1307 2683 2383 2474 2730 2866 2753 2790 2102 1872 2051 1989 1985 1941 1779 1610 1779 1725 1621 1448 1465 1592 1581 1379 765 923 819 1254 977 1122 1010 315 835 864 856 541 0 126 1265 403 850
1396 1639 1093 2655 2651 2316 2584 2698 2733 2330 1997 2193 2004 1860 1925 1951 2092 2177 2014 1702 1670 1321 1435 1517 1482 1290 693 658 1199 853 1051 816 1008 855 497 19 92 36 765 97 643 1095 1152
1169 1281 2060 2524 2249 2187 2382 2548 2588 2530 2268 2171 1887 1878 1851 1839 2021 1705 1693 1688 1528 1636 1615 1530 1257 992 852 958 1063 985 959 1023 1127 1111 47 353 133 218 561 661 501 769 661
950 1770 2274 2672 1987 1994 2099 2164 2294 2413 2345 2159 1985 1864 2122 2092 2002 1728 1889 1651 1594 1274 1648 1384 955 846 1171 1379 1096 1109 1199 1136 887 337 151 139 997 432 30 458 983 770 454
1956 2354 2157 2878 2673 2321 2084 2095 2386 2303 2195 2211 2078 1954 1997 1850 1804 1792 1677 1795 1653 1604 1599 1316 864 1354 1294 1396 1085 1267 1130 747 917 50 37 18 909 658 694 420 860 653 483
987 1854 2215 2566 2466 2230 2187 2153 2212 2379 2294 2297 1712 1616 1764 1835 1593 1676 1540 1436 1546 1909 1596 1422 937 1560 1523 1408 711 954 831 754 401 33 24 479 890 725 374 80 938 483 97
1208 1820 1931 2005 2282 2048 2075 2145 2127 1936 2025 2045 1890 1692 1520 1531 1465 1567 1385 1452 1305 1524 1756 1187 1196 1282 1199 1055 1001 960 968 1107 1166 775 20 556 1157 663 1097 186 24 405 976
1286 1887 1854 2731 2104 2009 1570 1976 2128 1865 1816 1999 1782 1625 1839 1752 1974 1945 1813 1563 1492 1310 1711 1454 1550 1304 1390 1308 980 933 966 1124 857 573 80 506 1278 518 968 558 306 776 225
1621 2256 2005 1797 1329 1219 1831 1851 1848 1669 1326 1490 1469 1266 1277 1564 1631 1737 1490 1669 1711 1362 1322 1524 1324 1645 1256 1219 1003 830 777 440 535 568 602 1454 1653 657 611 725 642 654 342
1786 1688 1705 1755 1079 707 1090 1818 1856 1367 1218 1185 1356 1656 1378 1535 1891 1772 1367 1627 1720 1606 1416 1380 1541 1549 1605 432 741 905 463 630 689 504 1322 2009 1893 953 1152 1270 837 821 815
2029 2228 2154 1993 823 978 1072 1884 2433 2518 1825 2583 1450 1689 1977 2120 1503 1313 2541 1222 798 1643 1401 1193 1259 975 506 738 729 682 81 574 610 753 1380 2117 1862 1155 1170 1500 1652 1179 908
2026 2088 1704 2192 1113 618 860 832 2096 2390 2234 2736 2128 2214 3238 2840 2301 2410 1209 1970 2660 1504 1684 1885 1258 1285 1687 1540 1516 1049 347 731 778 687 1751 2077 2045 1526 1327 1444 2146 1914 1416
1985 2077 2029 1830 1434 1030 976 1103 806 1321 1126 1418 1616 2355 2140 1600 1724 1321 2172 1811 1671 2338 1792 1620 1766 1693 2030 1615 1140 1864 539 465 400 941 1350 2495 2111 2158 1711 1647 1605 1803 1649
2248 2050 2164 1743 1839 1184 699 947 956 1234 2061 778 1768 1707 1856 1929 2034 1228 1293 692 1392 1581 1572 1464 1655 2404 1465 1606 1395 1937 1605 1285 466 397 505 1652 2149 1848 2138 2008 2319 1827 1736
2297 1995 2062 1949 1150 948 1185 870 890 842 1637 1606 1642 1929 1487 1511 2550 2499 932 895 1324 1739 1820 1861 2106 1455 1435 1767 1141 1602 906 982 1115 1304 754 907 1442 1923 1958 2353 2344 2266 2294
2220 2032 1843 1035 1266 1183 1129 1124 1030 835 762 625 577 590 1272 1446 1457 1457 1016 745 856 1470 1236 1170 1296 2337 1637 1470 1465 1327 1244 1588 1463 971 1383 1879 1706 973 1624 2052 2233 2039 2120
2254 1917 1620 1005 1334 1473 1417 1130 1674 1483 1123 574 607 1575 1290 1364 1061 1489 647 441 793 1172 1311 1729 1527 1755 1655 1274 1255 1315 1308 894 1201 628 1015 1396 2228 1573 1526 1601 1855 1654 1926
1418 1736 1598 1326 1340 828 1059 1509 1402 1729 1638 1654 1613 1662 1060 1194 648 425 601 537 631 457 726 1810 1374 1349 1236 1005 756 686 1579 1203 1098 1097 1045 1034 1765 1612 464 484 1214 1224 1784
1186 1419 1823 1332 1415 1502 1754 1424 910 442 931 820 944 1229 1328 1284 567 721 836 1901 1046 590 1193 1313 1802 1550 720 953 1465 519 475 609 413 778 1546 1586 1732 1704 1619 1305 3142 1297 1720
1381 1384 1553 1433 1533 2187 1741 1058 637 913 668 901 1089 1042 1081 1041 1334 1358 893 502 689 676 1179 801 787 749 673 1186 1053 1495 212 371 668 973 1997 1685 1250 1631 1341 1670 1700 1882 2320
1553 1384 1476 1500 2122 2285 1611 1075 1219 1178 1146 918 1288 1265 814 882 921 1175 442 465 693 458 286 643 1257 1479 1982 2119 1612 985 343 499 197 1511 1217 757 734 868 1501 1257 1282 1518 1935
1708 1546 1383 1451 2129 2283 2007 932 1225 1503 1436 1984 928 848 786 582 573 756 927 637 276 309 699 284 1591 2111 2126 1793 1530 810 635 553 105 172 780 777 560 676 1165 1420 804 1029 1405
1790 1669 1382 1526 1791 2272 2140 1411 1239 1360 1124 555 634 1310 1150 851 547 291 123 393 328 1001 1706 1651 1745 1908 2172 1887 1909 561 548 295 175 447 273 839 212 79 58 251 1074 1288 1266
1939 1831 1780 1778 1934 2451 2313 2054 1793 1553 1221 832 1511 1308 1334 1027 1155 540 152 312 216 488 905 903 1079 1029 1299 1310 576 190 377 1344 1293 1045 1300 938 458 38 0 0 49 717 981

GFSSE_con_mucape_072.txt.gz
CAPE
1017 1530 3091 3183 3304 3397 3156 3174 2898 2612 2146 1951 1806 1868 1773 1618 1583 1878 1657 1363 1106 1194 1233 1260 1287 1371 1346 1157 583 305 1029 1261 1226 886 1141 970 611 1012 1020 577 753 17 592
937 1270 2985 3166 3263 3287 3126 3372 3045 2611 2306 2069 2262 1943 1943 1734 1843 1627 1613 1443 1307 1359 1607 1206 1268 1353 1052 895 715 430 498 1183 1149 1236 758 623 751 46 736 908 536 0 25
777 1040 1768 3048 3143 3103 3035 3454 3294 2970 2119 2142 2413 2066 2015 1859 1567 1424 1472 1641 1556 1419 1602 1593 1337 1082 1017 889 1121 755 1148 1209 1253 686 1094 242 144 0 572 424 207 1095 788
1033 466 1123 2875 3067 3084 3114 3422 3247 2836 2169 2299 2540 2092 2020 1853 1720 1740 1640 1568 1237 1437 1469 1500 1464 1011 701 985 1065 1079 876 984 898 549 798 128 0 406 117 1203 1155 858 69
1449 672 1383 2843 2857 2586 3017 3280 3094 2826 2685 2525 2213 1991 1727 1859 2107 1894 1665 1441 1721 1377 1586 1671 1357 710 718 1136 995 1004 972 993 1003 1073 893 864 0 773 327 486 611 761 778
899 1450 2225 2678 2195 2321 2584 2881 3088 2972 2849 2376 1980 1810 1989 1841 1796 1837 1568 1491 1632 1647 1665 1284 894 937 1274 987 1114 1073 1026 984 835 1102 622 971 0 469 1020 984 1123 659 113
486 1701 1433 2658 2565 2222 2226 2502 2564 2715 2544 2338 1990 1839 1892 1877 1842 1447 1637 1660 1343 1488 1515 1069 858 1178 1427 1536 1249 1252 1259 918 705 486 177 785 385 837 331 901 1116 623 724
1684 1637 1352 2572 2757 2465 1998 1878 1987 2141 2085 2144 2014 1630 1677 1659 1807 1682 1665 1589 1587 1437 1502 1160 1213 1478 1502 1015 993 947 878 641 774 491 440 342 858 904 412 892 557 134 73
1878 2149 1917 1748 1967 2065 1971 2060 2083 2083 2099 2039 1852 1693 1729 1627 1493 1635 1478 1324 1371 1521 1695 1495 964 1633 1417 1037 754 823 1016 1077 815 1105 444 280 1662 1655 409 7 850 948 528
1669 1978 1536 2016 2626 2086 1654 2296 2156 1890 1916 1987 1849 1757 1692 1473 1485 1478 1740 1954 1339 1496 1599 1257 1116 1298 1203 1102 1064 966 1000 989 556 597 596 180 1652 1358 1373 150 17 222 767
1713 827 0 260 1185 1765 1634 2169 2063 1596 1710 1760 1805 1522 1717 1646 1732 2013 1699 1924 1457 1315 1556 1282 1532 1658 1488 1376 1111 988 830 356 382 601 336 1042 1525 1571 1256 797 379 877 240
1787 926 703 359 631 1032 960 2026 2108 1571 1258 1423 1533 1771 1449 1585 1737 1838 1848 1510 1616 1395 1342 1425 1780 1623 1293 805 985 1040 631 260 439 864 720 1577 1557 1449 993 1450 1071 815 524
1846 1738 1094 1190 731 444 558 715 1720 2469 1891 2271 2266 2345 1985 1992 1661 1625 1519 1447 1789 1734 1293 1496 1570 1291 1057 758 286 532 250 178 450 561 1233 1816 1860 1875 1260 1791 1677 1243 849
2430 2335 1975 1542 1377 1166 1233 906 1904 1233 1773 2147 2120 2346 2468 2243 2303 1955 1495 1995 1568 1582 1662 1252 1123 964 926 1102 506 406 500 369 136 369 1311 2198 2180 2107 1763 1866 2290 1871 1370
2420 2601 2542 2447 1939 1424 1501 1983 1960 1533 2008 1688 1647 2497 2284 2404 2109 1626 1755 1846 2075 2174 1351 1416 2135 1034 1274 1896 1548 1152 1230 1204 871 595 1382 2384 2307 2154 2310 1974 2154 1968 1895
2237 2909 2558 2390 2060 2015 1658 1396 1617 1599 1449 1845 1949 2061 2581 2083 2456 1997 2300 1276 2081 1602 1530 1778 1380 1824 1204 1769 2023 1832 1120 1061 1241 1176 1243 1759 2049 1980 2363 2354 2530 2477 2152
2499 2992 2528 2080 2114 1589 1417 1448 1589 1687 1658 2195 1338 1154 1906 1864 2473 2491 2455 2001 1553 1757 2510 1199 1602 2164 1561 1763 1788 1320 1430 1027 929 845 940 1308 1609 2159 1962 1871 2348 2439 2385
2666 2932 2715 1944 1893 1767 1690 1689 1587 1068 1181 1595 1535 1465 1999 1860 2332 2461 1492 1131 1827 1550 2414 2353 1346 1958 2197 1650 1352 1677 1409 1303 1235 1179 1344 954 1421 1054 1557 2047 1893 1372 1615
3184 3010 2692 1973 2035 1943 1932 1904 2129 2509 2072 1941 1482 1899 1889 1691 2019 2274 1701 1872 1655 1900 2018 1853 2130 2158 1645 1275 1345 639 879 1696 1012 780 908 1105 996 1603 1048 1681 1433 695 748
3069 2616 2307 1864 2318 2364 2056 2362 1929 2259 2099 2314 2122 1775 1175 1648 1864 1486 1426 1339 1095 622 1416 883 1446 1556 1848 1731 1086 683 1390 531 1281 862 1130 671 1677 1641 1146 1204 385 218 632
2213 2798 2514 2316 2263 1696 1899 2039 2083 1766 1554 1799 1815 1720 1238 662 1062 1130 819 1411 1063 555 272 1074 1451 679 1457 1283 386 757 826 697 1158 840 663 1362 763 1063 297 1439 782 672 476
2016 2352 2704 2398 2453 2275 2509 2414 2574 2477 1885 1834 2287 1778 1674 988 455 738 877 703 1501 1288 1246 971 987 988 1183 643 1049 863 730 848 767 815 1347 964 833 922 983 1217 1132 1034 1034
2109 2418 2432 2416 2416 2723 2743 2304 2453 2137 2193 1886 1911 2032 1659 1166 816 460 486 1031 887 787 537 626 719 955 623 484 1112 656 429 191 821 1001 326 545 603 819 1355 964 1049 1206 1254
2257 2153 2604 2514 2596 3135 3230 2275 2259 2230 1826 2013 1657 1911 1687 908 996 599 543 690 800 669 356 156 70 110 282 375 803 640 724 537 179 37 72 27 342 673 667 760 721 749 660
2370 2182 2222 2515 2916 3388 3433 3208 2493 1973 1783 1802 1558 2075 1866 1615 912 764 355 692 634 670 446 441 412 615 426 612 569 626 594 473 153 95 41 56 97 32 0 35 98 678 633
2338 2300 2061 2573 2662 3390 3304 2948 2709 2281 2090 1835 1675 1670 1731 1680 1184 853 481 393 224 158 30 224 347 244 392 717 703 227 87 165 138 103 152 293 188 54 5 0 0 211 221

GFSSE_con_mucape_075.txt.gz
CAPE
1503 2597 3387 3715 3530 3317 3145 2919 2427 2064 1892 1824 1826 1698 1553 1683 1822 1689 1454 1202 1278 1243 1219 1375 1398 1391 1240 554 393 1261 1248 802 1056 730 689 1015 914 703 801 536 294 599 329
1715 2557 3369 3574 3399 3391 3549 3480 2953 2337 1985 1817 1913 1837 1640 1822 1751 1642 1564 1328 1406 1481 1259 1135 1403 1096 779 549 213 772 1289 1313 1443 1277 649 491 220 412 1397 430 0 628 1071
1703 2447 2723 3282 3400 3375 3588 3610 3078 2537 1901 1846 1980 1999 1772 1778 1730 1547 1709 1545 1610 1528 1422 1302 1415 1067 917 789 741 891 1202 993 1617 735 419 0 3 681 36 281 647 125 999
1466 1883 2426 3205 3398 3265 3581 3629 3363 2598 1837 2056 2064 1979 1850 1672 1569 1731 1613 1626 1489 1464 1596 1517 1143 916 853 1191 1013 1145 1111 826 769 950 169 0 0 653 1101 849 615 314 505
782 1434 2334 3308 3182 2740 3124 3358 3247 2864 2517 2235 2017 2027 1720 1796 1823 1821 1631 1682 1382 1513 1557 1560 977 547 1295 972 1050 1021 901 907 690 651 699 0 96 0 879 1119 658 381 666
503 1394 2908 3121 2660 2598 2716 2884 3053 2837 3013 2645 2091 1873 1818 2003 1899 1742 1539 1589 1464 1586 1642 1213 581 791 1200 1102 974 919 861 864 753 577 28 16 510 699 729 854 972 405 635
1071 1442 2424 3058 3099 2996 2926 2611 2787 2870 2821 2296 2032 1798 1784 1656 1972 1794 1682 1672 1390 1700 1557 767 621 1331 969 995 1020 1000 1082 866 550 300 14 0 614 1553 1341 1258 749 168 511
1261 1400 1720 2640 2851 2539 2323 2438 2445 2396 2271 2125 1850 1652 1523 1480 1610 1553 1780 1779 1423 1649 1449 1167 1441 1333 1548 1317 1281 1121 773 588 711 310 148 0 708 1260 1054 1046 427 410 849
815 1188 1721 1975 1789 1954 2029 2016 2071 1965 1977 2205 1733 2053 1919 1787 1856 1660 1768 1704 1573 1383 1675 1043 1482 1699 1585 796 775 885 774 950 654 453 109 86 1410 1389 994 1004 348 138 163
187 0 946 1342 1521 1537 1606 2462 2428 2101 2105 1922 1554 1573 1796 1560 1597 1622 1911 1906 1444 1630 1610 1598 1049 1548 1368 999 848 854 960 1020 512 390 476 111 1389 864 123 749 840 1108 604
630 165 47 1159 1246 1363 1458 1759 2663 1931 1859 1924 1495 1733 1699 1119 1233 1394 1493 1620 1432 1567 1587 1400 1186 1493 1468 1173 1175 1201 1087 440 157 206 336 1311 1761 1817 656 244 351 285 884
906 788 555 381 1072 1006 1340 1424 1457 1250 1350 1363 1485 1252 1275 1260 1112 1415 1543 1970 1591 1486 1668 1532 2079 1780 1322 1046 1029 1165 845 418 99 335 245 1480 1712 2161 989 1001 829 943 327
1119 820 709 271 268 279 538 940 1311 1269 1083 898 1021 1095 971 912 1019 936 1034 1271 1293 1549 1156 1617 1712 1515 1183 718 604 592 495 175 85 338 666 1650 2017 2133 1399 1529 1209 796 759
958 962 925 719 318 140 129 477 844 964 810 959 1039 1149 908 1056 802 805 790 986 1199 1193 992 987 1050 1123 831 726 446 340 263 179 302 670 742 1772 1867 2019 1829 1818 1614 1210 991
1176 1080 1120 802 650 588 780 369 880 662 781 964 628 978 889 874 892 901 718 879 997 898 1013 902 792 670 654 672 694 668 348 332 845 389 634 2067 1985 1925 1809 1744 2001 1652 1553
1750 1513 1388 1039 789 691 561 612 476 493 642 894 802 802 986 981 1056 903 765 734 792 1132 746 664 664 504 700 777 646 554 586 800 509 607 815 1363 2169 1924 1786 2253 2362 2301 2084
1889 1944 1669 1356 1075 1133 867 502 291 548 535 520 769 795 962 782 785 1052 848 687 895 1035 900 723 770 784 687 687 607 570 838 731 408 466 773 752 1737 2175 2004 1751 2107 2305 2252
1852 1740 1559 1515 1326 870 675 741 856 788 871 816 792 556 187 762 798 742 697 904 815 898 849 606 603 782 429 783 751 748 740 583 797 707 675 798 979 759 1962 1994 2010 2149 2260
2031 1803 1527 1265 1037 818 934 1100 1012 678 487 458 651 386 548 590 992 675 652 646 762 616 894 832 640 666 749 452 582 512 755 806 586 632 619 611 769 765 575 1107 1584 1729 1268
2129 1843 1510 1264 1098 1161 1005 1200 1051 1428 1100 1316 1189 770 664 504 627 1288 957 633 305 315 573 592 376 566 675 574 702 576 384 368 399 612 352 385 710 801 748 562 457 551 932
1877 1673 1415 1381 1186 1431 1317 1463 1295 1218 1094 1218 978 1103 777 545 570 706 664 535 457 202 161 283 388 370 568 535 349 286 208 429 127 186 363 342 332 594 473 122 306 203 574
1957 1672 1332 1557 1287 1223 1081 1323 1508 1379 1162 1111 1120 968 951 804 450 562 413 217 558 557 209 180 298 279 272 208 141 101 68 28 264 253 338 277 290 476 249 186 554 564 460
1895 1899 1465 1801 1235 996 1472 1584 1098 812 940 910 983 1087 1012 874 560 323 392 215 296 637 407 173 73 91 31 61 186 83 65 19 22 131 77 82 184 290 302 284 426 584 618
1500 1975 1796 1729 1546 1377 1810 1713 877 662 517 914 908 1233 880 791 452 244 220 217 440 333 207 180 122 124 162 139 78 151 100 36 15 8 65 43 111 96 83 140 153 172 290
1636 1751 1773 1717 1488 1679 2094 1175 1032 1051 752 611 870 941 938 590 483 440 301 200 279 413 243 187 134 95 99 39 19 84 123 139 66 2 2 0 100 50 21 40 72 116 238
1692 1775 1745 1706 1793 2284 2211 1559 1608 991 765 721 654 732 1009 836 577 546 139 188 337 349 186 150 114 124 148 146 170 169 130 116 53 11 12 23 45 32 57 74 25 101 88